Location: Charbonni�res
(45.9952°N, 2.9982°E)
Time: 12:57:29
(UTC+00:00)

Sich 1 - Pass Details

Date: 29 November 2020
Orbit: 594 x 625 km, 82.5° (Epoch: 26 January)

Event Time Altitude Azimuth Distance (km) Brightness Sun altitude
Rises 06:28:02 0° 202° (SSW) 2,893 6.5 -6.9°
Reaches altitude 10° 06:30:19 10° 208° (SSW) 1,994 5.6 -6.5°
Maximum altitude 06:34:36 48° 283° (WNW) 827 3.3 -5.9°
Drops below altitude 10° 06:38:55 10° 358° (N) 2,010 5.4 -5.2°
Sets 06:41:14 0° 4° (N) 2,920 6.3 -4.8°
